Wind_Speed
8 5 3 7 6 6 9 4 8 11 7 10 10 5 6 6 2 5 7 8 9 5 4 7 10 11 11 11 13 16 16 14 15 16 16 16 16 15 14 14 15 14 13 13 13 12 10 10 9 8 8 8 10 9 8 8 8 7 8 8 7 7 7 7 7 7 10 11 9 9 11 13 12 13 14 14 17 18 16 16 17 18 20 19 18 19
7 1 6 11 6 1 2 5 14 6 2 9 8 5 7 5 4 7 8 10 11 6 5 8 10 11 11 12 14 16 15 13 15 16 16 16 16 17 16 15 16 14 15 14 13 12 10 10 10 8 8 8 9 9 8 9 9 8 8 8 7 8 7 8 7 5 7 10 10 10 8 8 10 12 12 14 15 14 12 12 14 14 15 16 17 20
3 4 10 13 5 1 1 10 14 4 3 6 3 3 4 3 4 7 8 10 8 4 5 8 8 10 11 11 13 16 14 14 17 16 15 16 15 18 18 17 16 16 16 15 13 11 10 12 13 10 9 8 9 10 9 8 8 8 7 7 8 8 7 8 9 6 6 6 9 13 10 8 11 13 15 16 14 13 12 13 15 15 13 14 16 17
3 7 9 8 2 4 2 9 7 4 4 2 1 1 1 3 3 3 6 10 7 3 6 6 5 7 9 9 10 14 15 14 17 16 15 15 15 17 18 17 17 17 17 15 13 11 11 13 13 11 9 9 10 11 10 9 9 8 8 8 9 8 6 6 8 9 9 7 9 12 12 10 12 13 15 15 12 14 15 14 14 13 12 14 15 15
6 4 3 3 2 5 1 8 3 3 1 2 2 4 2 6 5 4 6 9 8 6 11 11 4 2 6 10 10 11 12 12 15 16 15 15 14 15 17 17 17 17 17 16 14 12 12 13 12 10 10 10 11 11 10 10 10 10 9 10 10 9 8 8 9 10 11 11 9 11 12 11 11 12 11 10 11 13 13 13 13 12 12 13 13 14
3 2 4 6 3 3 2 6 4 4 0 2 2 3 3 7 7 6 6 6 5 4 10 10 3 2 7 10 10 9 9 10 13 14 15 15 15 15 16 17 17 17 16 16 15 14 14 14 12 10 10 11 11 11 10 10 12 12 11 11 10 10 11 10 10 10 11 10 8 9 11 10 11 14 12 11 12 12 11 12 13 12 11 9 9 11
4 4 2 6 4 0 5 7 5 5 2 2 2 2 2 4 7 8 5 3 2 3 8 8 2 3 7 9 10 11 11 11 12 13 15 16 15 15 16 18 18 17 16 16 15 15 16 15 13 12 11 12 13 12 12 13 13 13 11 12 11 10 11 11 11 11 11 11 9 10 10 9 11 12 12 11 11 10 10 11 11 10 9 8 8 12
6 4 2 4 4 2 5 5 8 6 2 1 3 1 1 1 5 6 5 2 2 3 7 8 3 1 5 7 10 13 12 13 13 13 14 17 18 18 17 17 17 17 17 17 15 15 17 16 14 14 13 14 15 14 15 15 14 14 13 12 11 11 13 12 12 11 11 12 12 12 12 11 11 12 12 11 10 9 10 9 9 9 9 9 11 13
8 7 3 3 1 4 1 4 10 6 3 1 3 0 2 9 11 4 3 2 3 1 2 4 3 1 2 6 9 12 11 12 13 13 13 16 18 19 19 18 17 18 18 17 16 16 18 17 16 16 15 15 16 15 16 15 14 15 13 12 12 12 13 11 11 12 11 11 12 13 13 12 12 13 12 10 10 10 9 8 7 7 8 10 11 12
7 5 6 4 2 2 2 1 4 2 3 0 0 6 8 11 10 4 2 1 2 3 3 5 6 3 2 3 6 9 9 10 11 12 14 17 19 19 20 19 17 18 18 17 17 17 18 17 18 19 17 17 18 17 17 15 14 15 13 12 12 12 12 11 11 12 11 12 12 12 13 11 10 10 8 8 9 9 7 7 5 5 7 8 9 12
3 2 5 5 2 4 3 4 3 2 4 3 4 6 4 4 5 3 2 1 1 3 4 7 9 5 3 4 4 6 7 9 10 10 12 17 20 20 21 21 19 18 18 18 18 18 18 17 18 20 19 18 19 18 16 15 15 15 13 13 12 12 12 10 11 11 11 11 11 11 12 10 9 9 8 8 8 7 6 5 4 5 6 6 9 11
6 5 5 4 2 5 3 3 2 2 3 5 5 2 1 0 2 2 2 2 2 2 2 8 10 5 2 3 5 7 8 8 10 11 12 16 20 21 21 22 21 19 19 19 21 20 20 18 18 20 20 19 19 18 16 16 15 14 13 13 12 12 12 11 11 11 10 10 10 10 9 8 8 9 9 8 7 7 5 4 4 5 4 5 8 9
7 5 9 6 2 4 2 3 2 4 4 4 4 2 2 1 0 1 1 0 2 2 3 4 8 4 1 1 5 9 9 10 11 12 14 18 20 22 23 22 21 20 20 20 21 22 22 21 20 22 21 20 20 18 17 17 16 14 14 13 12 12 11 11 11 10 9 10 9 9 9 7 6 8 8 6 6 5 3 3 3 2 2 5 7 8
3 5 11 6 1 2 1 2 1 2 3 0 3 2 2 2 3 2 3 2 2 3 5 2 5 4 2 3 5 8 7 12 15 12 13 19 21 22 23 22 21 20 20 22 23 23 23 22 22 24 23 21 21 19 18 18 15 15 15 13 12 12 11 11 11 10 9 9 10 8 8 8 7 6 7 5 4 5 3 2 2 2 4 5 6 8
3 5 6 2 0 4 1 2 2 3 1 2 4 2 1 2 1 1 1 1 1 0 1 3 4 4 3 3 7 9 9 15 20 15 9 13 18 20 21 21 22 22 21 22 24 24 23 23 22 23 22 21 21 20 19 18 16 15 15 14 13 12 11 12 12 11 10 8 10 8 4 5 5 5 6 6 4 5 4 2 1 4 7 6 4 7
2 5 6 2 4 5 1 3 6 5 2 3 4 2 1 3 3 1 3 3 1 2 2 1 2 1 2 5 7 9 9 12 18 20 15 14 18 19 20 20 21 24 24 22 24 24 24 23 22 21 22 21 21 21 19 18 17 16 15 15 15 13 12 13 12 12 12 9 9 11 8 6 6 4 5 5 6 5 4 3 3 3 7 6 5 9
3 4 7 6 6 5 3 6 6 4 1 2 2 3 3 5 4 2 3 5 1 3 1 2 4 3 3 4 4 6 5 5 9 16 18 18 19 18 19 20 21 24 25 23 24 25 24 24 22 21 22 22 22 22 20 19 18 17 16 15 15 14 12 13 12 11 12 10 9 10 11 11 10 8 7 6 6 6 4 3 3 3 5 6 8 12
3 3 5 6 7 4 2 2 2 6 7 2 1 4 6 5 3 1 2 3 0 3 2 4 5 4 3 3 3 3 3 1 7 10 15 17 20 20 18 19 21 24 27 25 24 25 25 24 23 22 21 22 22 22 22 20 18 18 17 15 16 15 13 13 13 10 10 10 8 9 9 10 9 8 6 4 3 5 4 3 4 4 5 7 10 11
5 4 2 5 9 5 4 4 3 9 9 5 3 3 4 2 0 1 2 2 2 2 3 4 4 2 1 3 3 2 2 3 5 5 10 14 18 19 19 20 20 22 27 27 23 25 25 23 23 22 21 21 22 22 22 20 19 18 18 16 16 15 13 13 13 11 11 10 9 8 8 8 8 7 6 4 4 6 4 2 5 7 6 8 10 10
5 3 1 6 9 5 6 4 2 4 5 7 4 2 3 2 1 2 3 3 4 2 2 5 5 2 1 4 6 5 4 3 2 4 6 10 14 15 17 22 21 21 26 27 24 24 25 24 23 22 21 21 21 21 21 21 20 17 17 17 16 16 15 15 13 12 12 11 9 7 6 6 7 7 6 5 6 5 3 4 8 8 8 9 10 10
2 2 2 3 4 3 3 3 3 1 2 3 2 0 2 2 3 4 2 1 3 3 2 2 4 2 3 5 5 7 6 3 3 6 4 5 10 13 15 20 21 22 25 25 23 23 25 25 23 22 21 21 21 21 21 22 20 17 17 17 16 17 18 15 14 14 13 12 11 9 8 7 6 6 6 6 6 4 4 7 9 9 11 10 9 9
0 1 3 2 1 4 4 1 4 4 4 5 3 1 1 2 3 3 1 2 1 2 4 1 4 2 3 3 1 3 7 5 5 6 8 6 6 8 12 17 21 24 25 24 22 23 25 25 23 22 21 21 21 21 21 22 20 19 19 19 17 18 18 16 14 14 14 13 12 11 11 10 8 7 7 7 7 5 5 7 9 10 11 10 8 8
2 2 4 2 1 3 3 4 9 6 5 7 4 2 4 3 1 2 1 2 2 3 4 0 4 2 2 3 4 3 3 7 6 5 10 9 7 8 10 14 19 23 24 23 22 23 26 26 24 23 21 22 22 22 22 22 21 21 20 18 19 19 17 15 14 14 15 14 13 12 12 11 9 9 8 8 8 8 7 8 9 10 10 9 7 7
1 3 4 2 0 1 1 6 9 5 3 5 3 1 1 2 2 3 3 3 3 4 4 2 3 2 1 1 1 2 1 6 9 10 12 10 9 11 11 13 18 21 23 23 21 23 26 26 25 23 21 22 23 22 23 24 21 20 20 18 20 20 17 16 16 16 15 14 13 13 13 11 11 10 8 8 9 10 9 9 9 10 9 8 7 6
1 3 2 2 2 1 2 5 5 3 5 4 3 2 2 1 7 5 3 4 3 5 5 4 2 2 2 2 2 1 0 3 5 10 15 13 9 9 12 14 17 21 23 22 22 23 24 24 24 22 19 21 24 22 23 25 22 20 20 20 20 20 19 18 17 17 15 14 14 13 12 12 12 10 9 10 11 12 11 11 10 9 7 7 6 5
4 1 1 3 3 1 1 3 2 2 4 4 4 3 1 5 8 2 1 0 2 4 4 3 0 2 4 3 4 3 1 3 3 4 11 13 10 9 11 13 17 20 21 21 23 23 23 24 23 21 19 20 23 23 23 23 21 20 21 21 20 20 20 19 18 17 15 15 15 13 12 13 12 10 10 13 14 13 14 13 10 9 7 6 6 5
3 2 3 5 4 1 4 5 5 4 5 5 4 2 3 7 5 2 2 1 2 2 2 3 1 2 2 1 1 1 1 4 2 2 6 9 7 8 12 13 15 18 18 19 23 23 23 24 22 21 21 19 21 24 24 21 20 20 21 21 20 20 20 19 19 17 16 15 14 13 12 12 11 12 13 15 16 15 14 13 11 9 7 5 5 5
4 4 5 5 6 6 6 5 8 9 8 9 5 2 3 9 5 2 3 1 3 2 1 2 2 3 3 1 3 2 1 5 2 3 6 9 7 7 12 13 15 17 16 17 21 23 24 25 22 21 22 19 18 22 24 22 20 21 21 21 21 20 20 20 20 18 17 16 14 13 12 11 12 14 15 17 17 15 13 12 11 9 6 5 5 5
5 5 3 5 6 8 8 5 6 8 7 9 5 6 6 8 5 2 4 3 3 2 1 3 4 2 5 4 4 4 2 5 7 5 7 11 10 9 11 13 14 16 16 17 19 22 23 23 22 21 22 20 18 19 22 22 21 21 21 22 22 21 20 20 20 19 18 17 16 14 12 12 15 16 16 18 18 15 12 12 11 8 5 5 5 5
3 4 4 5 7 7 7 6 4 5 7 7 4 4 5 7 7 5 3 2 2 3 2 1 2 3 5 4 5 7 5 1 9 8 9 10 10 12 13 13 14 15 15 16 19 20 20 21 21 21 21 22 20 20 20 21 21 21 21 21 22 22 21 20 20 19 18 17 16 14 14 16 17 17 16 18 17 14 12 12 10 7 6 6 5 5
1 3 4 5 6 5 4 4 2 4 8 5 3 2 5 8 8 3 4 3 2 2 2 1 2 2 2 4 1 6 4 3 6 8 10 10 9 12 12 10 11 13 13 15 17 18 19 20 20 21 21 22 21 21 21 20 20 20 20 20 21 21 21 21 20 20 19 17 15 14 16 18 17 16 15 14 13 12 12 11 10 8 6 6 5 5
1 3 4 4 5 3 1 3 3 4 8 4 2 1 6 5 7 4 3 4 3 2 1 0 2 2 1 4 2 5 1 1 3 5 8 9 10 14 14 11 11 11 12 14 15 17 18 18 19 21 21 21 21 21 20 20 19 19 20 20 20 20 19 19 20 20 19 17 15 16 18 18 19 18 15 12 12 13 12 11 10 8 7 6 5 6
2 4 4 1 3 0 3 5 6 4 4 2 4 3 5 1 5 1 1 2 3 2 2 1 1 1 1 3 2 2 2 1 2 4 6 6 7 10 10 11 12 12 12 14 14 15 18 18 18 20 20 20 20 20 20 20 19 19 19 19 20 19 19 19 19 19 18 17 16 17 20 22 22 20 16 13 14 13 12 11 10 8 7 6 5 6
3 5 2 1 2 1 5 5 9 5 2 1 2 3 3 1 2 1 1 2 2 1 2 2 1 1 2 1 1 1 2 2 3 4 5 5 7 10 8 9 9 10 10 11 13 14 16 17 16 17 19 19 19 19 19 19 19 18 18 18 18 18 19 19 19 19 18 16 17 21 24 24 23 19 15 15 15 13 12 11 10 8 7 6 6 7
3 4 2 2 2 2 3 5 7 3 1 2 1 3 5 5 4 3 2 3 2 1 2 3 3 5 6 4 1 1 3 4 3 4 5 5 6 9 10 9 9 12 11 11 13 13 14 17 17 16 18 18 17 17 17 18 18 18 17 17 17 17 18 18 18 19 18 17 20 25 25 23 20 18 16 16 14 13 13 11 9 8 7 6 7 7
2 3 2 3 2 1 3 5 3 1 4 4 3 2 1 3 2 1 2 4 4 3 4 6 7 6 5 4 2 4 5 4 2 2 4 6 6 5 7 7 8 13 13 13 15 15 15 17 17 17 19 18 17 17 17 17 18 17 17 17 17 17 18 18 18 18 18 19 24 27 25 22 20 18 17 15 14 14 13 11 9 8 7 7 7 7
3 3 1 1 2 2 3 2 3 4 5 5 3 3 1 1 1 1 1 5 5 6 7 6 6 5 3 3 6 6 4 2 3 3 3 4 6 5 5 5 7 10 11 11 13 14 15 15 15 18 20 18 17 17 17 16 17 16 16 16 16 16 17 17 18 18 19 23 26 27 25 22 21 19 17 15 15 15 12 11 9 8 7 7 8 7
5 2 0 1 1 3 4 1 4 5 4 3 3 5 3 2 3 2 2 3 4 8 8 5 3 4 4 5 7 4 2 2 2 4 3 3 4 3 5 5 5 7 10 11 11 12 14 14 14 16 18 17 16 16 15 15 15 15 14 14 15 15 16 17 18 19 21 25 27 26 24 22 21 19 16 16 16 14 12 11 10 8 7 8 8 7
5 3 2 2 3 4 4 3 2 3 3 4 4 4 4 4 2 2 2 2 4 8 7 4 4 7 6 6 4 2 2 1 1 4 5 4 3 3 4 5 4 5 9 11 12 14 15 14 13 15 16 15 15 15 14 14 14 15 15 15 16 16 17 19 19 20 24 27 28 26 25 23 22 19 17 17 15 13 11 11 9 8 8 8 8 7
5 4 3 4 5 4 4 2 0 2 4 5 5 5 6 6 3 2 2 2 4 7 6 3 7 9 5 3 2 2 4 3 3 5 4 3 5 3 1 4 6 6 8 11 12 12 13 13 12 13 14 14 15 14 14 14 14 15 16 16 16 17 18 19 19 22 27 28 26 25 25 24 22 19 18 17 14 12 12 11 9 8 8 8 8 8
6 5 4 6 5 3 3 2 2 5 4 5 5 5 6 5 3 3 2 4 6 6 5 5 9 7 4 5 7 7 7 6 7 6 2 2 7 5 1 1 5 5 6 12 14 13 13 14 13 13 14 14 15 14 14 14 14 16 17 17 18 18 18 19 20 24 26 26 25 26 26 24 22 20 19 16 13 12 12 10 9 9 8 8 9 9
5 5 4 5 5 3 4 4 3 4 3 3 5 6 6 4 1 2 5 4 6 8 6 6 7 5 4 7 8 7 6 6 6 6 4 5 5 3 1 2 2 3 4 10 14 14 14 14 14 14 14 14 15 15 14 15 16 17 17 17 18 17 17 19 22 24 25 25 25 26 25 24 22 21 19 16 14 13 12 10 10 9 8 8 10 10
4 5 5 5 4 4 4 3 3 3 2 2 4 4 6 4 2 4 5 3 5 9 7 6 6 3 2 4 7 7 5 4 3 4 5 3 2 1 2 0 0 2 3 6 10 13 14 13 12 14 13 13 14 14 14 15 16 15 15 15 14 14 16 20 22 24 25 25 25 25 25 24 22 21 18 15 14 13 11 11 10 9 9 10 11 12
4 3 3 2 2 3 3 0 2 5 7 7 4 4 6 5 6 6 3 1 5 8 7 8 8 4 3 5 6 5 4 2 2 1 1 2 3 2 2 3 3 3 6 8 9 11 13 11 10 12 13 13 13 12 12 14 15 14 14 14 14 16 19 22 23 24 24 24 24 25 25 23 21 19 17 14 14 13 12 12 11 10 10 11 12 12
1 3 3 4 5 4 4 5 6 9 12 12 10 10 10 9 7 6 5 5 5 5 6 8 8 5 3 4 4 4 6 5 3 3 1 1 3 3 4 5 5 7 7 8 10 12 12 11 12 14 14 14 14 13 13 14 13 13 14 15 17 20 22 23 23 23 24 24 25 25 23 21 20 18 16 14 14 13 13 12 11 11 11 12 13 13
6 8 4 3 6 8 8 8 9 11 13 12 12 13 13 12 9 5 5 9 8 5 6 6 6 4 4 4 4 4 6 5 2 4 3 1 1 2 3 4 5 7 7 8 11 12 11 12 14 15 14 14 14 14 12 11 10 12 15 18 19 20 20 22 22 23 25 26 25 24 21 19 19 18 16 15 15 14 14 13 12 12 13 13 13 14
8 12 7 1 6 5 5 7 9 11 12 12 12 13 14 14 11 5 4 8 7 3 3 3 3 2 3 2 2 2 3 3 1 0 3 4 4 3 1 2 4 6 7 9 11 11 12 14 15 14 14 14 13 11 10 9 10 12 14 17 18 18 19 21 23 24 25 24 23 21 19 18 18 17 16 16 16 16 16 15 13 13 14 14 15 16
8 12 7 2 5 6 6 7 10 14 15 15 13 13 13 12 11 8 6 7 5 2 2 4 3 2 3 2 1 2 2 2 1 2 2 3 4 2 0 1 4 5 6 9 11 12 13 14 14 13 14 13 11 10 9 9 10 11 12 14 16 19 21 22 23 23 22 21 19 18 18 17 17 16 16 17 17 17 17 16 14 15 16 16 15 16
7 8 4 2 4 7 8 6 7 11 14 15 15 14 13 11 11 11 10 11 10 7 4 3 3 3 3 4 4 2 3 4 2 1 3 3 3 3 2 2 3 4 6 9 11 12 13 14 14 14 13 12 10 10 10 9 10 10 12 14 17 20 20 20 20 20 19 18 18 17 17 17 17 17 17 17 18 18 18 17 16 17 17 17 16 17
5 3 3 1 3 5 5 4 4 4 8 11 13 13 13 12 12 12 12 13 13 11 9 7 4 5 8 9 8 5 4 6 5 2 2 4 4 3 2 2 3 4 7 9 10 11 13 13 13 13 13 12 11 11 11 11 11 11 14 17 18 19 19 18 19 19 18 17 17 17 17 17 18 18 18 19 19 19 19 19 18 18 19 19 18 17
3 3 5 3 4 5 5 7 8 5 8 11 12 12 13 12 12 13 13 13 13 12 12 11 10 10 12 11 11 10 8 8 8 5 3 3 3 2 1 2 3 4 7 8 9 11 13 13 13 14 13 13 13 13 13 13 13 13 16 18 19 18 17 17 19 19 18 18 17 17 17 18 18 18 19 19 19 20 21 21 21 21 21 21 20 19
Wind_Direction
110 116 238 247 236 205 212 219 67 77 123 117 103 133 192 200 177 166 173 145 137 154 166 151 142 147 155 161 168 170 179 185 170 164 163 163 166 168 163 157 157 153 149 151 145 135 125 116 109 98 94 93 97 99 106 110 103 104 99 92 89 82 77 74 87 98 85 73 69 74 71 69 70 64 63 65 70 73 69 57 47 47 50 51 50 46
85 140 240 251 268 95 239 72 77 74 139 110 116 167 180 169 142 165 165 139 145 160 161 158 148 149 158 163 168 170 178 186 177 170 168 169 164 162 164 160 158 155 155 155 143 137 136 129 120 103 96 98 100 102 112 117 111 112 108 98 87 79 77 79 85 104 104 86 78 85 75 69 84 79 72 74 71 67 70 66 59 62 60 56 52 45
72 262 252 253 281 357 232 94 98 105 53 82 116 179 171 144 127 153 155 141 151 171 158 164 155 147 156 159 164 174 182 184 179 176 174 173 164 158 161 160 160 160 158 153 141 139 142 133 122 108 104 108 110 111 114 117 114 110 106 98 92 88 91 98 100 102 105 102 95 92 81 72 85 81 75 80 78 67 73 77 73 76 72 62 55 48
221 238 249 246 272 287 196 110 112 114 83 63 90 243 184 115 127 159 157 147 152 155 132 145 150 140 151 155 169 184 183 179 178 177 176 175 170 164 160 160 163 160 155 151 145 145 143 132 118 110 116 117 117 119 114 115 117 114 110 106 104 99 96 105 102 88 80 88 100 98 92 83 78 74 75 80 78 68 69 71 70 72 69 60 54 50
218 219 272 231 196 279 152 109 104 90 90 252 185 232 190 125 160 167 149 153 161 159 137 140 145 131 168 169 175 187 179 175 178 176 177 178 175 169 163 163 165 160 158 159 155 151 143 129 116 116 128 124 123 123 116 120 124 120 114 111 113 110 99 93 91 86 84 86 91 97 97 93 84 83 86 85 79 75 74 73 70 69 66 61 55 49
241 244 296 273 229 250 116 101 123 135 204 284 200 226 156 135 147 123 128 158 164 169 152 153 156 159 187 185 172 173 176 178 182 180 182 181 174 172 170 167 168 165 165 166 163 157 142 129 123 126 133 129 127 127 125 128 125 118 116 115 113 109 103 98 93 86 86 87 93 103 100 101 103 97 90 88 87 80 75 78 76 69 61 56 61 58
239 221 258 290 292 230 94 93 156 171 118 288 273 351 75 135 133 125 130 154 171 180 165 170 200 154 173 191 177 170 177 180 185 188 187 184 177 177 180 176 173 173 172 170 171 161 141 134 137 136 135 133 129 130 128 124 122 120 120 117 111 104 100 100 98 90 91 94 100 107 99 96 109 106 94 94 97 85 76 79 76 70 61 51 63 64
269 256 215 253 283 48 94 126 187 198 64 315 257 317 289 68 95 129 118 55 262 181 160 168 185 162 164 184 179 173 178 180 185 190 189 188 183 180 181 183 180 175 174 174 174 163 143 141 147 141 139 137 132 131 127 123 127 127 122 118 112 102 99 103 103 101 107 103 97 107 108 96 96 103 102 101 99 95 95 91 73 60 48 43 54 56
273 279 285 249 350 46 288 184 177 180 56 292 244 269 26 46 50 57 97 51 281 214 168 166 161 194 163 169 173 177 184 182 185 189 191 193 191 183 177 185 188 175 175 179 175 163 149 150 156 147 142 140 136 135 132 130 130 128 124 123 116 105 106 114 111 105 110 105 95 104 111 102 96 96 99 99 93 91 92 86 74 65 46 31 38 41
243 289 331 302 8 65 276 55 130 135 59 141 81 57 48 58 66 58 97 117 285 261 226 191 188 201 172 170 176 182 190 188 188 190 191 193 197 191 177 182 189 176 176 180 170 161 153 157 161 150 144 145 143 139 136 136 134 132 130 126 120 116 119 123 118 111 109 108 103 107 110 108 104 99 101 105 94 87 85 74 60 62 50 22 16 23
220 350 335 290 358 16 7 53 40 8 66 67 44 62 61 81 106 104 126 146 292 257 204 190 200 197 170 190 191 195 205 195 188 189 190 189 193 193 178 176 184 180 177 174 164 159 156 158 157 148 148 151 148 144 145 145 140 139 137 131 130 129 131 127 122 121 117 116 117 117 116 111 109 112 112 111 102 93 95 84 44 40 42 11 7 17
351 19 329 298 16 331 331 83 39 352 77 79 55 47 265 38 112 134 157 182 212 242 200 183 180 161 147 179 191 213 228 215 193 187 188 186 188 188 177 174 180 183 180 170 164 163 161 160 156 151 154 156 152 151 154 153 148 148 145 142 142 138 140 136 129 131 126 126 128 125 125 112 109 122 113 98 104 102 93 81 47 38 31 350 358 16
347 348 299 290 171 255 307 75 29 4 21 73 77 358 314 16 341 175 100 281 245 20 29 170 151 122 328 257 195 208 225 226 205 188 185 185 186 183 176 177 181 182 179 170 166 165 164 164 162 159 158 159 159 158 159 160 157 155 155 155 154 149 152 146 139 141 133 131 133 128 135 131 118 130 117 95 110 117 108 100 70 32 353 332 344 4
336 302 289 305 90 244 174 126 241 3 345 50 103 20 340 2 354 8 43 357 293 46 39 18 87 102 264 273 217 211 211 204 192 188 189 181 180 177 174 178 179 178 179 173 168 168 168 169 168 166 162 161 164 163 164 167 164 160 163 167 165 162 164 156 153 156 146 148 151 134 127 133 142 158 147 130 124 120 134 132 54 328 311 329 344 352
333 288 282 8 306 262 225 125 154 155 206 117 109 114 253 270 315 360 345 249 237 82 326 328 63 113 200 194 198 206 200 182 170 174 186 171 170 169 170 176 171 171 179 175 170 171 171 172 171 168 166 165 167 167 167 169 169 168 170 174 173 172 172 170 170 166 163 169 164 151 129 124 145 180 169 157 157 148 158 156 52 317 307 324 343 340
241 269 274 268 229 243 215 172 172 168 180 86 113 149 172 216 198 158 274 275 98 83 276 270 93 131 188 165 192 205 189 165 156 160 166 170 171 165 169 175 164 165 176 174 169 170 171 172 172 170 169 169 170 171 171 172 174 175 175 177 179 181 179 182 183 171 172 186 174 164 166 159 162 184 179 173 191 199 196 191 191 278 299 312 332 336
188 259 264 255 244 234 173 181 187 168 151 110 150 202 218 239 234 174 268 286 42 95 156 156 138 181 172 148 222 227 164 137 158 158 159 168 168 161 172 175 161 164 174 172 167 168 169 172 172 171 171 172 174 174 175 177 179 179 180 179 182 187 183 188 194 180 178 190 190 177 173 179 184 187 200 205 207 221 241 242 238 277 306 319 333 338
204 242 237 242 257 246 158 244 231 134 136 148 217 224 223 240 275 325 274 271 230 111 144 158 148 168 167 139 214 243 93 193 219 168 150 159 161 164 175 173 165 166 169 168 166 167 170 173 173 172 174 175 177 178 177 179 180 181 183 181 186 190 184 190 200 192 188 194 200 200 190 196 201 196 218 237 216 229 248 275 283 285 300 318 330 334
207 236 226 253 261 218 157 255 245 139 156 207 213 209 240 237 150 295 280 285 318 52 107 135 118 107 168 131 137 153 142 222 227 158 147 155 160 169 170 167 173 168 160 162 166 167 170 173 175 175 177 177 178 180 180 179 180 183 186 184 190 196 188 193 203 197 197 202 206 212 205 207 208 199 219 243 229 233 241 249 261 269 289 309 323 333
213 256 207 236 251 209 165 213 229 151 206 240 205 190 302 337 30 308 291 314 327 351 112 134 121 94 174 123 124 156 187 214 180 144 161 154 156 169 167 167 175 167 156 160 165 168 170 173 176 176 178 178 178 181 182 181 182 186 190 187 191 199 195 195 204 203 201 204 209 224 228 218 210 192 195 225 232 229 222 231 247 271 300 308 319 335
221 307 305 244 242 234 199 183 196 218 255 249 210 287 324 335 341 319 275 320 350 331 323 121 125 93 89 111 138 162 164 207 191 148 141 153 157 165 169 170 172 165 163 167 168 169 170 172 175 177 180 180 177 182 183 181 186 190 188 189 193 201 204 203 203 203 205 204 203 215 223 219 217 198 187 213 236 219 200 233 255 282 301 305 318 333
181 241 277 309 290 276 302 291 232 234 181 192 209 174 180 218 301 317 310 345 5 254 289 45 117 85 56 52 324 163 146 182 215 141 133 165 163 160 171 171 168 165 165 169 170 170 170 170 173 178 183 182 176 181 185 182 187 190 186 189 194 201 209 210 202 201 208 206 200 206 217 218 218 213 201 208 228 231 239 263 277 287 293 302 319 327
6 241 230 245 199 253 311 283 263 261 214 223 235 184 185 187 234 283 295 325 325 277 286 81 115 88 6 9 354 338 113 147 173 134 133 161 167 167 178 168 163 163 161 165 169 168 169 170 173 179 188 184 174 178 186 183 185 191 192 191 192 198 209 209 201 201 207 208 203 206 216 221 221 224 217 208 218 238 268 286 287 286 292 304 318 324
329 287 238 258 291 170 323 276 267 290 297 269 278 225 174 135 195 241 293 323 357 358 342 24 84 73 340 346 56 321 343 136 151 135 130 163 181 169 174 169 162 160 159 164 167 164 167 170 173 181 192 186 172 174 186 187 186 192 196 195 194 198 207 206 201 203 207 210 211 212 217 223 230 231 215 210 229 250 266 275 281 286 294 306 317 323
202 282 265 286 282 180 294 278 265 336 336 303 310 360 52 236 236 239 343 352 7 2 7 42 55 59 54 11 34 67 97 105 118 125 137 168 185 162 166 169 161 158 159 163 164 163 166 170 174 183 195 187 170 173 189 190 188 193 196 198 199 202 207 206 204 206 207 211 216 218 220 225 235 228 206 219 247 260 261 262 271 284 293 305 316 321
188 223 225 268 277 130 191 259 228 313 302 292 312 335 318 267 268 264 48 26 53 348 357 67 240 10 53 21 355 6 45 90 85 131 149 159 167 163 165 162 158 161 163 163 163 165 170 175 180 185 193 188 173 174 187 188 186 193 198 200 202 204 207 207 208 208 208 212 220 222 222 229 235 220 210 234 251 257 257 256 261 276 290 304 311 316
227 205 205 252 281 240 210 208 183 207 251 258 271 290 266 277 303 6 307 294 73 334 333 66 8 347 52 137 168 280 274 102 107 226 139 131 156 167 157 155 158 162 166 166 166 171 178 183 186 187 190 191 179 177 185 186 187 193 197 200 202 204 208 208 209 210 209 212 219 221 223 233 232 213 218 243 254 257 256 251 252 266 285 301 303 309
274 247 220 247 276 270 252 207 180 191 226 245 229 122 312 293 307 352 299 209 153 233 305 31 321 317 337 18 127 158 151 112 155 248 119 131 183 175 151 161 164 161 170 175 172 176 183 186 188 187 188 192 187 182 184 187 192 195 197 200 203 204 208 209 209 211 212 213 216 220 224 234 230 218 225 245 256 259 253 243 248 261 278 292 294 306
288 277 240 227 241 258 266 251 208 202 234 258 238 154 185 248 246 219 257 222 188 265 285 224 254 326 359 357 92 86 37 125 161 195 146 156 182 170 160 175 170 165 178 183 179 181 183 185 188 187 187 191 189 185 185 187 193 197 200 203 203 204 208 211 212 212 213 216 221 222 224 230 228 223 232 246 254 255 246 240 247 253 266 281 288 305
303 289 285 257 244 242 239 234 223 227 244 260 260 184 186 240 236 198 229 205 167 303 317 207 270 47 40 350 81 73 342 218 150 160 162 167 178 167 169 186 181 176 187 187 182 183 183 187 191 189 189 192 191 191 190 191 195 198 202 204 203 205 208 211 215 214 213 219 223 222 224 231 230 229 239 248 249 248 243 240 241 242 256 273 283 303
302 277 287 278 273 269 238 219 205 262 263 259 275 326 17 332 308 4 5 340 86 336 322 60 348 61 77 301 67 88 325 269 145 148 152 163 180 160 159 195 195 182 191 189 182 184 188 192 192 191 194 194 193 196 197 197 200 201 204 206 206 209 210 209 214 216 215 219 223 224 227 227 223 227 241 247 244 243 242 234 232 239 253 267 282 303
262 269 261 246 260 270 227 228 215 249 267 281 315 29 67 358 316 40 24 307 52 65 260 97 360 41 85 278 238 121 104 258 142 147 149 171 187 157 154 196 201 184 193 193 186 188 192 195 195 195 198 197 197 200 200 202 205 205 207 209 210 212 212 210 214 217 217 219 223 225 222 213 211 224 239 244 241 241 235 225 225 238 250 262 282 303
227 262 268 273 267 243 57 322 291 254 251 316 342 355 84 77 290 36 103 311 54 90 276 47 122 214 200 267 249 123 121 148 157 160 153 170 170 146 166 203 191 180 193 192 193 196 193 197 201 197 197 201 203 204 204 205 208 209 210 211 212 214 215 213 215 217 219 222 222 218 213 211 221 235 243 242 239 233 223 219 225 236 246 259 283 300
255 267 280 36 286 75 65 324 288 269 224 180 284 324 46 125 253 93 124 307 38 63 321 358 241 278 357 338 259 123 118 122 144 151 144 150 141 145 192 217 183 178 192 189 195 202 195 194 199 199 201 206 208 208 208 209 210 212 213 214 214 215 215 216 216 217 219 220 216 213 215 221 231 238 238 234 231 222 214 218 224 233 244 260 283 298
233 254 238 198 233 115 125 228 255 262 150 191 241 16 7 337 5 61 172 190 119 86 342 341 345 6 3 345 296 137 102 96 117 147 157 167 155 159 188 198 177 179 189 190 192 200 198 194 195 198 202 208 211 210 210 211 212 214 215 216 217 216 215 217 216 215 216 213 207 212 220 227 230 231 230 227 220 211 212 217 223 232 245 263 284 295
211 265 257 233 227 137 187 217 238 82 126 181 203 93 49 292 353 60 163 110 77 36 16 353 348 7 358 343 56 92 81 76 102 129 148 163 165 177 190 186 178 179 184 192 192 195 196 192 194 201 202 205 210 209 210 212 211 213 214 215 217 215 214 215 212 211 212 205 205 214 223 226 226 226 224 218 209 208 213 217 223 233 246 265 282 290
187 263 315 305 274 270 263 212 145 121 138 179 192 130 133 318 80 152 121 86 62 26 20 351 345 18 25 29 63 78 79 128 146 102 84 142 154 181 199 195 193 183 177 184 187 189 191 188 198 210 205 200 204 205 208 209 207 208 211 211 212 211 211 212 211 212 210 202 206 217 222 224 225 223 217 209 205 209 214 216 223 235 250 268 280 285
173 210 29 5 251 252 284 276 158 155 149 154 124 96 90 52 58 57 56 63 32 20 13 349 15 62 71 68 72 92 129 173 143 112 101 106 121 176 192 179 190 180 168 174 179 185 192 193 201 204 193 187 197 204 206 205 203 206 210 209 209 211 212 213 212 211 207 203 210 219 221 222 225 220 211 206 206 211 213 215 226 240 252 267 279 281
176 183 207 258 263 247 260 267 201 162 121 122 122 118 136 137 100 69 78 56 22 24 4 338 67 82 79 81 89 149 137 129 130 121 122 106 102 197 183 137 142 168 166 175 182 184 189 191 192 189 181 185 199 203 204 206 207 210 212 214 217 218 217 216 213 210 207 207 214 220 219 221 221 213 205 206 208 210 212 217 229 241 251 264 276 274
205 205 209 237 256 253 253 276 321 90 93 115 132 133 125 125 157 203 150 86 36 31 1 1 89 93 86 90 74 28 62 88 107 107 121 135 137 178 202 123 146 168 164 165 168 170 175 179 184 185 185 193 202 204 210 215 216 218 220 221 222 222 220 218 213 209 209 210 213 215 215 217 215 207 204 208 209 208 212 221 231 241 252 261 267 265
206 204 213 235 246 240 233 245 100 91 80 82 83 72 81 108 179 214 132 84 66 56 22 40 88 96 71 60 61 55 64 77 84 88 88 121 130 148 289 83 138 149 156 160 159 162 171 177 186 194 198 201 204 208 216 221 223 229 230 230 229 227 224 220 213 208 206 206 206 208 210 213 209 203 205 210 209 209 214 224 234 243 251 255 259 260
211 201 207 233 248 250 239 224 140 105 46 61 92 76 72 97 174 111 103 100 88 83 63 56 77 75 41 62 78 84 79 76 84 96 84 65 89 116 57 42 97 89 115 149 154 161 174 182 190 200 207 208 208 210 217 222 227 234 234 232 232 228 222 216 210 202 197 196 199 203 207 208 204 201 206 211 209 212 219 226 233 244 247 246 251 253
209 215 215 217 229 232 238 238 155 137 49 63 138 112 81 70 13 56 95 122 103 95 93 87 82 58 13 71 98 106 94 83 92 88 74 69 71 75 74 331 286 94 144 169 161 165 180 192 198 204 210 215 214 215 220 223 225 224 221 220 219 214 209 205 197 190 188 191 196 199 202 203 201 203 210 213 210 216 225 229 235 242 241 241 246 248
193 221 224 227 283 249 214 68 87 96 66 55 71 88 78 52 8 7 24 88 108 106 104 99 91 69 20 48 81 109 110 98 113 93 336 207 180 174 229 229 218 202 211 213 201 194 199 205 208 210 211 210 206 203 206 208 207 207 208 206 201 197 194 188 182 182 187 191 192 195 199 201 203 207 213 214 214 220 227 230 236 241 240 243 248 247
56 35 61 69 31 30 85 92 91 86 72 62 60 63 66 52 23 3 5 22 57 83 86 95 101 99 86 65 68 102 97 78 101 126 35 282 193 204 241 237 218 221 222 209 204 208 206 202 206 210 208 199 190 189 194 203 210 213 208 199 195 193 187 181 181 185 188 189 192 197 202 203 206 211 215 215 220 227 230 234 238 242 245 249 249 246
42 27 15 97 95 78 71 72 80 82 78 75 68 58 55 46 30 23 20 12 15 43 62 79 92 77 69 74 67 88 101 94 110 129 111 63 154 177 229 247 228 222 216 201 200 199 190 190 199 204 202 195 191 194 204 218 227 222 209 201 199 195 188 185 188 188 189 192 197 202 206 207 209 213 216 218 225 231 233 238 241 246 252 252 247 246
28 6 338 180 126 106 82 68 71 71 65 67 66 55 52 50 44 48 36 6 0 29 47 43 68 42 9 51 72 61 96 99 58 142 142 134 107 95 173 239 231 218 204 202 202 190 181 188 194 197 199 198 198 205 219 232 234 223 214 212 205 193 186 190 193 191 192 198 203 205 208 211 214 218 220 223 229 232 234 239 244 250 256 254 246 244
350 343 339 55 74 84 116 108 95 87 71 59 57 50 44 47 49 50 48 32 30 67 27 1 353 292 296 314 344 340 360 46 29 347 6 101 110 97 90 200 221 215 197 205 208 189 180 189 195 198 202 201 202 214 224 233 234 222 213 209 197 184 185 193 196 196 198 204 207 209 212 217 221 226 228 229 232 235 237 243 249 254 259 260 251 247
315 320 345 57 83 104 118 108 101 105 85 60 52 49 39 40 49 47 45 48 54 67 74 34 327 313 360 24 24 360 327 327 347 338 331 11 83 104 118 172 216 204 187 206 213 190 180 189 197 203 209 206 206 211 214 226 234 216 199 192 184 184 192 197 197 201 206 209 211 214 218 224 228 232 234 234 234 236 240 247 255 259 262 261 255 249
325 322 356 339 152 126 104 51 32 93 89 60 49 47 39 37 47 48 44 49 53 55 68 84 77 49 52 46 39 44 19 358 16 36 314 356 51 82 124 162 193 186 183 203 211 193 186 194 202 209 213 210 206 202 201 217 229 211 194 190 189 197 205 202 199 204 209 211 215 220 225 230 233 233 235 236 234 235 241 249 254 258 260 261 258 254
39 50 27 50 107 89 62 44 31 49 87 75 56 49 44 40 45 50 46 47 53 52 54 63 63 55 55 51 43 43 40 24 27 41 39 40 61 83 135 157 180 187 190 204 207 194 190 196 207 214 214 211 210 202 198 214 227 212 198 198 204 212 215 206 204 210 213 215 222 227 229 233 235 233 234 237 237 239 245 250 252 253 256 258 259 257
Height
1483 1490 1493 1490 1484 1481 1480 1479 1483 1489 1489 1495 1508 1516 1514 1510 1505 1498 1496 1495 1498 1506 1508 1506 1509 1512 1514 1515 1516 1519 1521 1521 1521 1522 1523 1523 1524 1525 1526 1527 1528 1529 1531 1532 1532 1533 1534 1534 1534 1535 1535 1535 1535 1536 1537 1537 1538 1539 1540 1540 1541 1542 1542 1542 1543 1543 1544 1544 1545 1545 1545 1546 1546 1546 1546 1546 1546 1546 1547 1547 1547 1547 1547 1546 1546 1546
1484 1491 1489 1482 1475 1472 1473 1475 1483 1489 1488 1491 1503 1511 1506 1503 1503 1498 1494 1495 1498 1506 1509 1506 1509 1513 1513 1514 1516 1517 1519 1520 1519 1520 1522 1522 1523 1525 1526 1527 1528 1529 1530 1531 1532 1533 1533 1534 1534 1535 1535 1535 1536 1537 1537 1538 1539 1540 1540 1541 1542 1542 1543 1543 1543 1544 1544 1544 1545 1545 1546 1547 1547 1547 1548 1548 1548 1548 1548 1548 1548 1548 1549 1549 1548 1547
1487 1489 1481 1474 1470 1469 1471 1476 1482 1486 1487 1491 1496 1501 1500 1495 1496 1496 1492 1493 1497 1504 1510 1509 1511 1514 1512 1512 1515 1516 1517 1518 1518 1519 1521 1522 1522 1524 1525 1526 1527 1529 1530 1530 1532 1533 1533 1533 1533 1535 1536 1536 1537 1538 1538 1539 1540 1541 1541 1542 1543 1543 1543 1543 1544 1544 1545 1545 1545 1546 1547 1547 1548 1548 1549 1549 1549 1550 1550 1550 1550 1550 1550 1550 1550 1550
1488 1483 1473 1469 1469 1470 1472 1475 1479 1483 1487 1491 1493 1498 1497 1492 1499 1504 1495 1494 1498 1501 1508 1513 1514 1513 1513 1515 1515 1514 1514 1515 1516 1518 1520 1521 1522 1523 1525 1526 1527 1528 1529 1530 1532 1532 1532 1532 1533 1535 1536 1537 1537 1538 1539 1539 1541 1541 1542 1543 1543 1544 1544 1544 1544 1545 1546 1546 1547 1547 1548 1549 1549 1549 1550 1550 1551 1551 1551 1551 1551 1552 1552 1552 1551 1551
1480 1473 1466 1466 1468 1469 1473 1476 1479 1485 1488 1487 1489 1495 1493 1489 1496 1499 1493 1494 1497 1499 1503 1513 1523 1521 1514 1516 1515 1512 1513 1514 1515 1516 1519 1521 1522 1523 1524 1525 1527 1527 1529 1530 1531 1532 1532 1533 1534 1535 1537 1537 1538 1539 1540 1540 1541 1542 1543 1543 1544 1544 1545 1545 1545 1546 1547 1547 1548 1548 1549 1550 1550 1551 1551 1552 1552 1552 1553 1553 1553 1553 1553 1553 1552 1552
1474 1468 1465 1467 1468 1468 1473 1478 1481 1485 1488 1487 1484 1484 1484 1486 1489 1490 1492 1496 1503 1508 1502 1505 1526 1528 1514 1512 1512 1511 1513 1514 1515 1516 1517 1520 1521 1522 1523 1524 1526 1527 1529 1530 1530 1531 1532 1533 1534 1536 1537 1538 1538 1539 1540 1540 1541 1542 1543 1544 1545 1545 1545 1546 1546 1547 1548 1548 1549 1549 1550 1551 1551 1552 1552 1553 1553 1554 1554 1553 1554 1554 1554 1553 1553 1552
1470 1465 1465 1468 1468 1468 1475 1480 1480 1481 1487 1491 1482 1476 1479 1482 1486 1490 1493 1500 1509 1512 1502 1500 1518 1524 1516 1512 1508 1508 1512 1513 1514 1516 1516 1518 1519 1521 1522 1523 1524 1526 1528 1529 1530 1531 1531 1533 1535 1536 1537 1538 1539 1540 1540 1541 1542 1543 1544 1544 1545 1546 1546 1547 1547 1548 1548 1549 1549 1550 1551 1552 1552 1552 1553 1554 1554 1554 1554 1554 1555 1555 1554 1554 1553 1553
1468 1466 1467 1468 1468 1473 1479 1481 1480 1477 1484 1490 1478 1475 1480 1481 1488 1494 1495 1503 1504 1499 1497 1496 1503 1514 1517 1511 1503 1503 1508 1510 1512 1513 1514 1515 1517 1519 1520 1522 1523 1525 1527 1528 1529 1530 1531 1533 1535 1536 1537 1538 1539 1540 1541 1542 1543 1544 1545 1545 1545 1546 1547 1547 1548 1549 1549 1550 1550 1551 1552 1552 1553 1553 1554 1555 1555 1555 1555 1555 1556 1555 1555 1554 1554 1553
1467 1468 1468 1467 1470 1477 1478 1473 1473 1474 1481 1484 1474 1475 1481 1485 1496 1498 1499 1506 1499 1497 1507 1501 1497 1513 1519 1504 1498 1501 1504 1508 1510 1509 1511 1512 1513 1515 1518 1522 1522 1523 1526 1527 1528 1529 1530 1533 1535 1536 1537 1538 1539 1540 1541 1542 1543 1544 1545 1546 1546 1547 1548 1548 1549 1549 1550 1551 1551 1551 1552 1553 1553 1554 1554 1555 1555 1555 1556 1556 1556 1556 1555 1555 1555 1554
1468 1468 1467 1466 1471 1475 1472 1467 1467 1472 1478 1477 1472 1477 1484 1490 1496 1498 1503 1506 1502 1507 1514 1504 1497 1513 1520 1505 1498 1502 1503 1504 1505 1505 1507 1508 1510 1513 1516 1520 1521 1522 1524 1526 1528 1529 1530 1533 1534 1535 1536 1538 1539 1540 1542 1542 1543 1545 1545 1546 1547 1547 1548 1549 1549 1550 1550 1551 1552 1552 1553 1553 1554 1554 1555 1555 1555 1556 1556 1557 1557 1556 1556 1556 1555 1554
1465 1465 1467 1466 1468 1469 1466 1467 1468 1470 1473 1473 1476 1481 1487 1491 1492 1499 1503 1502 1513 1517 1505 1499 1495 1501 1515 1511 1500 1500 1499 1497 1498 1499 1501 1503 1507 1510 1513 1517 1519 1521 1523 1524 1527 1529 1530 1533 1533 1534 1536 1537 1539 1540 1541 1543 1543 1545 1545 1546 1547 1548 1549 1549 1550 1550 1551 1551 1552 1553 1553 1554 1555 1555 1555 1556 1556 1556 1557 1557 1557 1557 1557 1556 1555 1554
1466 1470 1472 1467 1467 1467 1467 1471 1471 1469 1469 1474 1483 1488 1493 1496 1494 1502 1504 1503 1519 1517 1496 1494 1492 1494 1511 1509 1496 1494 1492 1489 1491 1494 1496 1499 1502 1506 1510 1514 1517 1520 1522 1523 1526 1528 1530 1532 1533 1534 1536 1537 1538 1540 1541 1542 1543 1545 1546 1546 1547 1548 1549 1549 1550 1551 1551 1552 1552 1553 1553 1554 1554 1555 1555 1556 1556 1557 1557 1557 1557 1557 1557 1556 1555 1555
1472 1474 1472 1467 1466 1465 1470 1477 1476 1476 1477 1481 1488 1494 1503 1507 1506 1511 1511 1510 1513 1506 1498 1496 1488 1496 1509 1498 1489 1491 1487 1486 1487 1488 1491 1494 1498 1502 1506 1512 1515 1517 1520 1522 1525 1527 1529 1531 1532 1533 1534 1536 1537 1539 1541 1542 1543 1544 1545 1546 1547 1548 1549 1550 1551 1551 1552 1552 1553 1553 1554 1554 1555 1555 1556 1556 1557 1557 1558 1558 1558 1557 1557 1556 1555 1554
1485 1480 1470 1470 1472 1466 1469 1480 1484 1486 1487 1488 1491 1499 1509 1514 1521 1524 1521 1520 1514 1507 1508 1498 1488 1505 1510 1493 1486 1486 1483 1483 1483 1483 1487 1490 1495 1499 1504 1509 1513 1515 1518 1521 1524 1526 1528 1529 1530 1531 1533 1535 1536 1538 1540 1541 1542 1544 1545 1546 1547 1548 1549 1550 1551 1551 1552 1553 1553 1554 1554 1555 1555 1556 1556 1557 1557 1558 1557 1558 1557 1557 1556 1555 1555 1554
1500 1496 1477 1476 1481 1472 1468 1475 1481 1483 1484 1486 1485 1494 1506 1509 1516 1523 1521 1523 1520 1516 1513 1500 1497 1510 1508 1492 1482 1479 1479 1480 1483 1484 1485 1488 1493 1497 1502 1507 1511 1514 1517 1520 1522 1525 1527 1528 1529 1530 1531 1534 1536 1537 1539 1540 1542 1543 1545 1546 1547 1548 1549 1550 1551 1551 1552 1553 1553 1554 1554 1555 1556 1556 1556 1557 1557 1557 1557 1557 1557 1556 1555 1555 1554 1553
1500 1498 1477 1471 1474 1469 1470 1471 1471 1476 1483 1485 1483 1491 1500 1494 1496 1508 1507 1501 1507 1521 1518 1503 1501 1499 1489 1483 1475 1473 1476 1476 1480 1485 1484 1488 1491 1494 1501 1504 1508 1513 1515 1519 1521 1523 1525 1527 1529 1529 1531 1533 1535 1537 1538 1540 1541 1543 1544 1546 1546 1548 1548 1549 1550 1551 1552 1552 1553 1553 1554 1555 1556 1556 1556 1556 1557 1556 1556 1556 1556 1556 1555 1554 1554 1553
1498 1494 1474 1469 1469 1464 1470 1469 1465 1474 1483 1485 1488 1491 1487 1478 1481 1498 1503 1492 1499 1524 1519 1500 1500 1493 1483 1484 1476 1471 1475 1475 1478 1481 1482 1487 1489 1493 1499 1501 1505 1511 1514 1517 1519 1521 1524 1526 1528 1528 1530 1532 1534 1536 1538 1539 1541 1542 1543 1545 1546 1547 1548 1549 1549 1550 1551 1552 1552 1553 1553 1554 1555 1555 1556 1556 1556 1556 1556 1556 1555 1555 1554 1553 1553 1552
1490 1490 1473 1469 1473 1466 1464 1467 1464 1467 1474 1484 1490 1485 1476 1476 1477 1485 1500 1502 1501 1514 1513 1501 1500 1496 1492 1493 1481 1473 1479 1483 1480 1477 1479 1485 1488 1493 1496 1499 1504 1508 1513 1516 1517 1520 1523 1524 1526 1527 1529 1531 1533 1535 1537 1538 1540 1541 1543 1544 1545 1547 1547 1548 1549 1550 1551 1551 1552 1553 1553 1554 1554 1554 1555 1555 1555 1555 1555 1555 1555 1554 1553 1552 1552 1551
1480 1487 1478 1469 1472 1467 1462 1468 1471 1468 1468 1475 1479 1474 1476 1490 1493 1488 1496 1503 1499 1503 1512 1508 1500 1493 1492 1490 1482 1479 1483 1483 1479 1475 1478 1482 1486 1491 1494 1497 1503 1506 1511 1514 1516 1519 1521 1523 1525 1527 1529 1531 1532 1535 1536 1538 1540 1541 1542 1544 1544 1545 1546 1548 1548 1549 1551 1551 1551 1552 1552 1553 1553 1554 1554 1554 1554 1555 1554 1555 1554 1553 1553 1552 1551 1551
1475 1486 1485 1471 1465 1465 1464 1471 1478 1477 1471 1467 1470 1475 1476 1483 1491 1489 1488 1493 1498 1502 1507 1509 1504 1496 1487 1480 1479 1482 1480 1477 1478 1478 1478 1480 1484 1489 1492 1495 1500 1503 1508 1512 1515 1517 1519 1521 1524 1525 1528 1530 1532 1534 1535 1537 1539 1539 1541 1542 1543 1545 1545 1547 1548 1549 1550 1551 1551 1552 1552 1553 1553 1553 1554 1554 1554 1554 1554 1554 1553 1552 1552 1551 1551 1550
1475 1483 1487 1473 1463 1468 1471 1471 1475 1477 1475 1475 1480 1486 1485 1479 1482 1486 1482 1481 1494 1505 1502 1503 1509 1497 1479 1473 1476 1478 1477 1475 1476 1478 1479 1480 1482 1487 1491 1493 1497 1501 1505 1509 1512 1515 1517 1520 1523 1525 1528 1529 1531 1534 1535 1536 1538 1538 1540 1542 1543 1544 1544 1546 1547 1548 1549 1550 1551 1552 1552 1552 1552 1552 1553 1554 1553 1553 1553 1553 1552 1551 1551 1551 1550 1550
1475 1480 1485 1479 1475 1479 1475 1466 1465 1468 1471 1476 1480 1482 1484 1483 1485 1494 1496 1483 1483 1496 1494 1495 1508 1498 1475 1471 1472 1471 1473 1474 1474 1476 1479 1481 1482 1485 1489 1491 1495 1499 1503 1507 1510 1513 1516 1519 1522 1524 1526 1527 1530 1532 1534 1535 1537 1538 1539 1540 1542 1543 1543 1545 1546 1547 1548 1549 1550 1551 1551 1551 1551 1552 1552 1553 1552 1552 1552 1552 1551 1551 1550 1550 1550 1549
1469 1474 1480 1480 1479 1479 1472 1464 1463 1463 1464 1467 1470 1472 1476 1480 1484 1497 1505 1491 1481 1488 1482 1482 1502 1498 1476 1470 1471 1468 1469 1472 1475 1476 1478 1481 1483 1485 1487 1489 1494 1499 1502 1506 1509 1511 1514 1517 1520 1523 1524 1526 1528 1530 1533 1534 1535 1537 1537 1539 1541 1542 1543 1544 1545 1547 1548 1548 1549 1550 1551 1551 1551 1551 1552 1552 1552 1551 1550 1550 1550 1550 1550 1549 1549 1548
1469 1474 1478 1480 1476 1473 1471 1468 1464 1461 1463 1467 1468 1468 1472 1478 1481 1485 1487 1482 1483 1491 1488 1491 1505 1497 1476 1470 1470 1469 1469 1470 1475 1477 1479 1483 1483 1484 1487 1488 1493 1498 1501 1505 1508 1510 1513 1516 1519 1521 1522 1524 1526 1529 1531 1532 1534 1536 1536 1538 1540 1541 1542 1543 1544 1545 1546 1547 1548 1549 1550 1550 1550 1550 1551 1551 1550 1550 1550 1550 1549 1549 1549 1548 1548 1548
1474 1477 1479 1486 1491 1491 1488 1484 1477 1471 1470 1473 1472 1469 1471 1474 1475 1477 1478 1481 1490 1492 1489 1501 1511 1495 1476 1471 1470 1470 1470 1470 1473 1476 1481 1485 1484 1485 1487 1488 1492 1496 1500 1504 1507 1509 1512 1515 1518 1520 1521 1522 1524 1527 1530 1530 1532 1535 1536 1537 1539 1540 1541 1542 1543 1544 1545 1546 1547 1547 1548 1549 1549 1549 1549 1549 1549 1548 1548 1548 1548 1548 1548 1548 1547 1547
1473 1476 1478 1488 1499 1504 1504 1496 1488 1481 1476 1475 1472 1470 1472 1471 1470 1475 1482 1490 1498 1493 1485 1496 1504 1489 1477 1475 1474 1472 1473 1474 1475 1476 1480 1484 1485 1486 1487 1488 1492 1495 1499 1503 1505 1508 1511 1513 1516 1518 1519 1521 1522 1525 1528 1529 1531 1533 1535 1536 1538 1539 1540 1541 1543 1543 1544 1545 1545 1546 1547 1548 1548 1548 1548 1547 1547 1547 1547 1547 1547 1547 1547 1547 1547 1546
1468 1471 1473 1479 1484 1489 1490 1484 1478 1478 1479 1478 1474 1471 1472 1471 1468 1473 1483 1491 1494 1492 1490 1489 1488 1484 1480 1478 1478 1477 1475 1476 1477 1477 1479 1483 1485 1486 1487 1490 1492 1494 1499 1502 1504 1507 1510 1512 1515 1517 1518 1520 1521 1523 1526 1528 1530 1532 1534 1535 1537 1538 1539 1540 1542 1542 1544 1545 1545 1545 1546 1546 1547 1547 1546 1546 1545 1545 1546 1545 1546 1546 1546 1546 1546 1545
1468 1471 1470 1471 1473 1472 1471 1470 1469 1472 1475 1474 1471 1472 1473 1472 1469 1473 1482 1485 1484 1491 1496 1487 1481 1484 1481 1475 1477 1478 1475 1477 1479 1478 1480 1483 1486 1488 1489 1490 1493 1495 1498 1501 1504 1507 1509 1511 1514 1515 1517 1519 1520 1522 1524 1526 1529 1531 1532 1534 1535 1537 1538 1539 1540 1541 1543 1544 1544 1545 1545 1545 1545 1545 1544 1544 1544 1544 1544 1544 1545 1545 1545 1545 1544 1544
1469 1473 1468 1467 1471 1468 1464 1465 1466 1468 1469 1466 1465 1469 1472 1472 1472 1474 1477 1476 1476 1486 1491 1483 1479 1482 1480 1475 1476 1475 1474 1477 1479 1479 1482 1485 1487 1489 1490 1491 1492 1494 1497 1499 1502 1505 1508 1510 1512 1514 1516 1518 1520 1521 1522 1525 1527 1529 1531 1532 1533 1535 1537 1538 1539 1540 1541 1542 1543 1544 1544 1544 1543 1543 1543 1543 1542 1543 1543 1543 1544 1544 1544 1544 1543 1543
1470 1473 1467 1466 1468 1465 1463 1464 1463 1465 1467 1464 1464 1467 1469 1469 1468 1469 1472 1471 1472 1477 1477 1475 1478 1479 1477 1476 1474 1474 1475 1475 1477 1481 1483 1484 1486 1488 1491 1492 1492 1494 1496 1498 1501 1504 1507 1509 1511 1513 1515 1517 1518 1520 1522 1523 1525 1527 1529 1530 1531 1533 1534 1536 1537 1538 1540 1541 1541 1542 1543 1542 1541 1542 1541 1541 1540 1541 1541 1542 1543 1543 1543 1543 1542 1542
1472 1474 1467 1466 1470 1467 1463 1462 1463 1466 1465 1465 1468 1468 1469 1473 1471 1470 1473 1471 1472 1477 1474 1474 1479 1478 1475 1473 1471 1473 1475 1473 1474 1479 1481 1483 1485 1487 1490 1492 1491 1492 1495 1497 1499 1503 1505 1508 1510 1512 1514 1515 1517 1519 1521 1522 1524 1526 1527 1529 1530 1531 1532 1534 1535 1536 1538 1539 1540 1541 1540 1539 1540 1540 1539 1538 1539 1539 1540 1541 1541 1541 1542 1542 1541 1541
1471 1473 1466 1466 1475 1474 1465 1464 1467 1466 1463 1466 1472 1470 1471 1479 1478 1475 1476 1474 1474 1479 1478 1478 1482 1480 1474 1471 1470 1472 1474 1473 1474 1477 1478 1481 1483 1485 1489 1491 1491 1493 1495 1497 1499 1502 1504 1507 1509 1510 1512 1515 1516 1518 1520 1521 1523 1524 1525 1527 1528 1530 1531 1532 1533 1535 1536 1537 1539 1539 1538 1538 1538 1537 1536 1536 1537 1538 1539 1539 1540 1540 1540 1540 1540 1540
1467 1471 1467 1469 1479 1476 1468 1469 1468 1467 1474 1481 1478 1471 1471 1477 1477 1474 1476 1474 1472 1475 1478 1481 1482 1477 1471 1470 1471 1472 1472 1473 1475 1476 1478 1480 1481 1484 1488 1489 1490 1492 1495 1497 1498 1500 1503 1505 1507 1509 1511 1513 1515 1516 1518 1519 1521 1523 1524 1525 1527 1528 1529 1531 1532 1533 1534 1535 1537 1536 1536 1536 1536 1535 1535 1535 1536 1537 1537 1538 1538 1539 1539 1539 1539 1539
1465 1467 1467 1470 1479 1480 1474 1473 1473 1479 1492 1492 1476 1466 1469 1473 1474 1476 1478 1476 1473 1472 1474 1475 1473 1470 1469 1470 1471 1472 1472 1473 1474 1476 1479 1480 1481 1484 1487 1488 1489 1491 1493 1496 1497 1499 1502 1504 1506 1508 1510 1512 1514 1515 1516 1518 1519 1521 1522 1524 1525 1526 1528 1529 1530 1532 1532 1533 1534 1534 1533 1533 1533 1533 1534 1534 1535 1535 1536 1537 1537 1538 1538 1538 1538 1537
1465 1466 1467 1467 1473 1478 1476 1479 1490 1496 1491 1479 1468 1465 1468 1468 1468 1472 1474 1473 1472 1472 1472 1472 1471 1469 1469 1469 1469 1470 1472 1473 1475 1477 1479 1481 1482 1484 1486 1488 1488 1490 1493 1495 1496 1499 1501 1502 1505 1506 1508 1511 1512 1514 1515 1516 1518 1519 1521 1522 1523 1524 1526 1527 1528 1529 1530 1531 1532 1530 1530 1531 1531 1532 1532 1532 1533 1534 1535 1536 1536 1536 1537 1536 1536 1536
1463 1466 1466 1464 1468 1475 1477 1482 1493 1492 1477 1469 1469 1469 1469 1470 1470 1473 1476 1474 1471 1472 1473 1473 1472 1470 1469 1470 1469 1471 1473 1474 1476 1477 1479 1480 1482 1484 1485 1487 1488 1489 1492 1494 1495 1498 1499 1501 1502 1504 1506 1509 1510 1512 1514 1514 1516 1517 1519 1520 1521 1522 1524 1525 1526 1527 1528 1529 1528 1527 1528 1529 1529 1530 1530 1531 1532 1533 1533 1534 1535 1535 1535 1535 1535 1535
1462 1465 1467 1469 1470 1473 1476 1479 1481 1483 1480 1476 1473 1469 1469 1471 1471 1474 1479 1477 1472 1471 1473 1473 1473 1471 1470 1471 1471 1473 1475 1476 1476 1478 1479 1480 1482 1484 1485 1486 1487 1488 1490 1493 1495 1496 1498 1500 1502 1503 1505 1507 1509 1511 1512 1513 1515 1516 1517 1518 1519 1520 1522 1523 1524 1525 1526 1526 1525 1525 1526 1527 1527 1527 1528 1529 1530 1531 1532 1533 1533 1534 1534 1534 1533 1533
1458 1462 1467 1474 1473 1469 1474 1480 1483 1491 1493 1482 1472 1468 1468 1469 1469 1470 1478 1480 1474 1472 1474 1473 1472 1472 1472 1472 1474 1475 1476 1479 1480 1481 1481 1481 1483 1483 1484 1485 1486 1487 1489 1492 1495 1496 1498 1500 1501 1502 1504 1506 1508 1510 1511 1512 1514 1515 1516 1517 1518 1519 1520 1521 1522 1523 1523 1523 1523 1524 1524 1525 1525 1526 1526 1527 1528 1529 1530 1531 1532 1532 1532 1532 1532 1531
1457 1460 1463 1472 1474 1469 1473 1480 1483 1488 1487 1477 1470 1468 1467 1470 1469 1470 1483 1490 1479 1473 1475 1473 1472 1473 1474 1474 1476 1475 1477 1483 1485 1482 1481 1483 1484 1484 1484 1485 1487 1488 1489 1491 1493 1496 1497 1499 1501 1502 1503 1505 1507 1509 1510 1512 1512 1514 1515 1515 1516 1517 1518 1519 1520 1521 1520 1520 1521 1522 1522 1523 1523 1524 1525 1525 1526 1528 1529 1530 1530 1531 1531 1531 1530 1530
1461 1462 1464 1471 1474 1469 1470 1475 1477 1479 1477 1470 1468 1467 1468 1469 1469 1478 1497 1497 1480 1474 1476 1473 1472 1475 1475 1476 1476 1476 1478 1483 1484 1482 1483 1483 1484 1484 1484 1485 1487 1488 1489 1490 1493 1495 1497 1499 1501 1502 1503 1505 1507 1508 1509 1511 1512 1512 1513 1513 1514 1515 1516 1517 1518 1518 1518 1518 1519 1520 1520 1521 1522 1522 1523 1524 1525 1526 1527 1528 1529 1529 1529 1529 1529 1529
1462 1462 1465 1469 1470 1467 1470 1475 1477 1478 1473 1467 1467 1468 1468 1471 1477 1489 1497 1489 1476 1476 1478 1474 1474 1477 1476 1476 1478 1478 1480 1482 1482 1483 1484 1483 1484 1485 1485 1486 1486 1487 1488 1489 1491 1494 1497 1498 1500 1501 1502 1504 1505 1507 1508 1510 1510 1511 1511 1512 1512 1513 1513 1514 1514 1515 1516 1516 1517 1518 1519 1519 1520 1521 1521 1523 1524 1525 1526 1526 1527 1528 1528 1528 1527 1527
1463 1464 1466 1467 1468 1467 1467 1470 1478 1482 1475 1467 1469 1471 1471 1479 1488 1489 1483 1477 1476 1478 1478 1476 1478 1478 1477 1478 1479 1480 1482 1482 1483 1484 1484 1484 1485 1486 1486 1487 1487 1487 1489 1490 1490 1493 1496 1497 1499 1500 1502 1502 1504 1505 1506 1507 1507 1508 1509 1509 1510 1510 1511 1511 1511 1512 1514 1514 1515 1516 1517 1518 1519 1519 1520 1521 1522 1523 1524 1525 1526 1526 1526 1526 1526 1526
1461 1465 1466 1465 1464 1466 1468 1472 1484 1489 1478 1468 1471 1474 1476 1482 1485 1480 1475 1476 1477 1477 1477 1479 1480 1479 1479 1480 1480 1482 1483 1483 1484 1485 1485 1486 1487 1487 1488 1489 1488 1489 1490 1491 1492 1493 1495 1496 1497 1499 1500 1501 1502 1503 1504 1504 1505 1505 1506 1507 1507 1508 1508 1508 1509 1510 1511 1513 1514 1515 1516 1517 1517 1518 1519 1520 1521 1522 1523 1523 1524 1524 1525 1525 1524 1524
1456 1461 1465 1463 1460 1465 1475 1482 1484 1482 1475 1470 1473 1477 1479 1480 1479 1476 1476 1477 1476 1477 1479 1480 1480 1481 1481 1481 1481 1483 1484 1484 1485 1486 1486 1487 1487 1488 1489 1489 1489 1490 1490 1491 1492 1493 1494 1496 1497 1497 1498 1499 1500 1501 1502 1503 1503 1504 1504 1505 1505 1505 1505 1506 1507 1508 1510 1511 1513 1513 1515 1515 1516 1517 1518 1519 1520 1521 1521 1522 1522 1523 1523 1523 1523 1523
1458 1458 1463 1466 1465 1466 1474 1478 1475 1473 1473 1474 1476 1477 1479 1480 1478 1478 1478 1477 1477 1479 1479 1479 1481 1482 1482 1482 1483 1483 1484 1485 1486 1486 1486 1487 1487 1488 1489 1489 1489 1490 1490 1490 1492 1492 1493 1494 1495 1495 1497 1498 1499 1500 1500 1501 1502 1502 1503 1503 1503 1503 1504 1505 1506 1507 1509 1510 1511 1512 1513 1514 1515 1516 1517 1518 1519 1519 1520 1520 1521 1521 1521 1521 1521 1522
1458 1457 1460 1465 1468 1469 1473 1474 1472 1474 1477 1477 1478 1479 1480 1480 1479 1478 1478 1479 1480 1480 1480 1481 1482 1482 1482 1484 1484 1483 1484 1486 1485 1486 1487 1487 1487 1487 1488 1488 1489 1489 1489 1490 1490 1491 1492 1493 1493 1494 1495 1496 1498 1499 1499 1500 1500 1500 1501 1501 1501 1502 1503 1504 1505 1506 1508 1509 1510 1511 1512 1513 1514 1515 1516 1517 1517 1518 1518 1519 1519 1519 1519 1520 1520 1520
1461 1462 1462 1465 1469 1475 1480 1479 1476 1478 1480 1479 1480 1481 1481 1482 1482 1480 1480 1482 1483 1482 1482 1483 1483 1483 1484 1484 1484 1484 1485 1485 1485 1485 1486 1486 1487 1487 1488 1488 1488 1489 1489 1490 1489 1490 1492 1492 1492 1493 1494 1495 1496 1497 1498 1498 1498 1499 1499 1500 1500 1502 1503 1504 1505 1506 1507 1508 1509 1510 1511 1512 1513 1514 1514 1515 1516 1516 1517 1517 1517 1517 1517 1517 1518 1518
1469 1468 1468 1469 1471 1475 1480 1480 1479 1481 1483 1482 1483 1484 1483 1485 1485 1484 1484 1485 1484 1483 1483 1483 1484 1484 1484 1483 1484 1484 1484 1484 1485 1485 1485 1485 1486 1487 1487 1488 1488 1488 1489 1489 1489 1490 1491 1491 1492 1493 1493 1494 1495 1496 1496 1497 1497 1497 1498 1499 1500 1501 1502 1503 1504 1505 1506 1508 1509 1510 1510 1511 1512 1512 1513 1514 1514 1514 1515 1515 1515 1515 1515 1515 1516 1516
1472 1473 1474 1474 1475 1477 1479 1481 1481 1482 1483 1484 1485 1485 1485 1486 1486 1485 1485 1485 1485 1484 1485 1486 1486 1486 1484 1484 1484 1484 1484 1485 1485 1485 1485 1486 1486 1486 1487 1488 1488 1488 1489 1489 1489 1490 1491 1491 1492 1492 1493 1494 1494 1495 1495 1496 1496 1497 1498 1498 1499 1500 1501 1502 1504 1505 1506 1507 1508 1509 1509 1510 1510 1511 1512 1512 1512 1513 1513 1512 1513 1513 1513 1513 1513 1513
1474 1476 1476 1476 1480 1482 1483 1484 1484 1483 1484 1486 1487 1487 1487 1487 1486 1486 1486 1485 1485 1486 1486 1488 1489 1487 1485 1484 1485 1485 1486 1485 1485 1485 1486 1486 1486 1486 1487 1487 1488 1488 1488 1488 1489 1490 1491 1492 1492 1492 1493 1493 1494 1494 1495 1495 1495 1497 1497 1498 1499 1500 1501 1502 1503 1504 1505 1506 1506 1507 1508 1508 1508 1509 1510 1510 1510 1510 1510 1510 1511 1511 1510 1510 1511 1511
1478 1480 1479 1480 1483 1485 1485 1484 1484 1484 1485 1487 1488 1488 1488 1488 1488 1488 1487 1487 1487 1487 1487 1487 1488 1486 1486 1486 1486 1486 1486 1486 1485 1485 1486 1486 1487 1487 1487 1487 1488 1488 1488 1488 1488 1489 1490 1491 1491 1491 1492 1493 1493 1494 1494 1494 1495 1496 1497 1498 1498 1499 1500 1501 1502 1502 1503 1504 1504 1505 1505 1506 1506 1507 1507 1507 1508 1508 1508 1508 1508 1508 1508 1508 1508 1509